Regional Weather Roundup
Issued by NWS Charleston, WV

Home | Current Version | Previous Version | Graphics & Text | Print | Product List | Glossary On
Versions: 1 2 3 4 5 6 7 8 9 10 11 12 13 14 15 16 17 18 19 20 21 22 23 24 25 26 27 28 29 30 31 32 33 34 35 36 37 38 39 40 41 42 43 44 45 46 47 48 49
000
ASUS41 KRLX 251610
RWRRLX
West Virginia Regional Weather Roundup
National Weather Service Charleston WV
1100 AM EST SAT FEB 25 2017

Note: "fair" indicates few or no clouds below 12,000 feet with no
significant weather and/or obstructions to visibility.

WVZ003-251700-
Northern Panhandle of West Virginia

CITY           SKY/WX    TMP DP  RH WIND       PRES   REMARKS
WHEELING       CLOUDY    45  36  70 W15G25    29.62S
$$

WVZ009-251700-
Northwest West Virginia

CITY           SKY/WX    TMP DP  RH WIND       PRES   REMARKS
PARKERSBURG    CLOUDY    49  40  71 W10       29.71R
$$

WVZ006-251700-
Western West Virginia

CITY           SKY/WX    TMP DP  RH WIND       PRES   REMARKS
HUNTINGTON     PTSUNNY   48  32  53 SW15G25   29.75R
$$

WVZ015-251700-
West Central West Virginia

CITY           SKY/WX    TMP DP  RH WIND       PRES   REMARKS
CHARLESTON     CLOUDY    50  42  74 W13G29    29.71R
$$

WVZ022-031-251700-
North Central West Virginia

CITY           SKY/WX    TMP DP  RH WIND       PRES   REMARKS
CLARKSBURG     CLOUDY    50  44  80 W10       29.65R
MORGANTOWN     CLOUDY    50  47  89 VRB7      29.63R
$$

WVZ025-035-042-045-251700-
Southern West Virginia

CITY           SKY/WX    TMP DP  RH WIND       PRES   REMARKS
BECKLEY        CLOUDY    48  41  76 W14G21    29.71S
LOGAN          PTSUNNY   52  43  71 VRB7      29.71F
BLUEFIELD      CLOUDY    43  39  86 W9        29.73R
LEWISBURG      LGT RAIN  46  43  88 W13G21    29.69R
$$

WVZ047-251700-
Northern Mountains of West Virginia

CITY           SKY/WX    TMP DP  RH WIND       PRES   REMARKS
ELKINS         CLOUDY    46  40  79 VRB5      29.66R
$$

WVZ052-251700-
Eastern Panhandle of West Virginia

CITY           SKY/WX    TMP DP  RH WIND       PRES   REMARKS
MARTINSBURG    CLOUDY    66  55  67 CALM      29.56F
PETERSBURG     CLOUDY    62  56  80 S6        29.56F
$$




USA.gov is the U.S. government's official web portal to all federal, state and local government web resources and services.